Weather in Fofantsevo

Russia / Vologda Oblast     59°19′45″N   39°59′59″E
temp.,
°C
wind,
m/s
gust,
m/s
humid.,
%
clouds,
%
prec.,
mm/h
press.,
hPa
HPBL,
m
7 march, sun
sun700:00−14ssw59955 0.0 1006181
03:00−12s6128949 0.0 1002321
06:00−9s71489100 0.0 996644
09:00−8sse91489100 0.1 992745
12:00−6sse81290100 0.2 989755
15:00−5sse61194100 1.3 988732
18:00−7nnw1287100 0.7 98846
21:00−9w2390100 0.9 98936
8 march, mon
mon800:00−12wsw3389100 0.0 99034
03:00−14w239282 0.0 99228
06:00−11n259691 0.3 993188
09:00−11nne589296 0.6 996605
12:00−11n6890100 0.3 1000689
15:00−10n5888100 0.4 1003746
18:00−12n5990100 0.2 1006587
21:00−16n499499 0.2 1009244
9 march, tue
tue900:00−20nnw369896 0.0 1011117
03:00−23nnw359767 0.0 101492
06:00−26nnw359718 0.0 101590
09:00−25n359426 0.0 1017241
12:00−21n459049 0.0 1018399
15:00−18n468673 0.0 1019565
18:00−21n469494 0.0 1021107
21:00−24n349660 0.0 102353
10 march, wed
wed1000:00−26n23960 0.0 102420
03:00−26nw239522 0.0 102523
06:00−27nw339593 0.0 102630
09:00−24nw249646 0.0 1027147
12:00−19nw238638 0.0 1027325
15:00−15wnw358345 0.0 1027468
18:00−18wnw349426 0.0 102753
21:00−20nw349740 0.0 102842
11 march, thu
thu1100:00−20nw3310076 0.0 102932
03:00−21wnw3310072 0.0 102925
06:00−21wnw339937 0.0 102931
09:00−18wnw239527 0.0 1030126
12:00−12w238749 0.0 1029309
15:00−8wsw248058 0.0 1028540
18:00−12sw349255 0.0 102860
21:00−18sw369533 0.0 102890